DateTimeUTC,F1_A11,F1_S11,BsB_S11,BsG_S11,BsR_S11,BbsB_S11,BbsG_S11,BbsR_S11,BaB_A11,BaG_A11,BaR_A11,Tu_S11,T_S11,Uu_S11,U_S11,P_S11,T1_A11
2021-07-22T04:00:00Z,00000200,20000000,,,,,,,0000.11,0000.29,0000.45,18.4,25.3,05.8,03.8,0666.1,31.1
2021-07-22T04:01:00Z,00000200,20000000,,,,,,,-000.22,-000.27,-000.21,18.4,25.3,05.6,03.7,0666.1,31.1
2021-07-22T04:02:00Z,00000200,20000000,,,,,,,-000.28,0000.03,-000.00,18.5,25.3,05.6,03.7,0666.1,31.1
2021-07-22T04:03:00Z,00000200,60000000,,,,,,,0000.68,0000.40,0000.01,18.5,25.3,05.6,03.7,0666.1,31.1
2021-07-22T04:04:00Z,00000200,40000000,0000.76,0001.08,0000.16,-000.11,0000.10,0000.14,-000.51,-000.17,0000.08,18.7,25.3,05.8,03.9,0667.0,31.1
2021-07-22T04:05:00Z,00000200,00000000,0001.10,0001.00,0000.80,0000.09,0000.39,0000.05,0000.19,0000.36,0000.47,18.8,25.2,05.9,04.0,0667.1,31.1
2021-07-22T04:06:00Z,00000200,00000000,0001.18,0000.33,0000.30,0000.27,0000.22,-000.13,0000.41,-000.09,-000.24,18.7,25.2,05.9,04.0,0667.1,31.1
2021-07-22T04:07:00Z,00000200,00000000,0001.57,0000.61,0000.70,0000.27,0000.22,0000.15,0000.11,-000.02,-000.02,18.7,25.2,06.0,04.0,0667.1,31.1
2021-07-22T04:08:00Z,00000200,00000000,0000.78,0000.66,0000.57,0000.16,0000.07,0000.07,0000.09,0000.19,0000.14,18.7,25.1,06.0,04.0,0667.2,31.1
2021-07-22T04:09:00Z,00000200,00000000,0001.42,0001.09,0000.40,0000.11,0000.06,0000.10,0000.13,0000.35,0000.24,18.7,25.1,06.0,04.0,0667.2,31.1
2021-07-22T04:10:00Z,00000200,00000000,0001.25,0000.88,0000.51,-000.05,0000.29,0000.02,0000.11,0000.03,0000.05,18.6,25.1,06.1,04.1,0667.2,31.1
2021-07-22T04:11:00Z,00000200,00000000,0001.24,0000.81,0000.34,-000.17,0000.42,-000.06,0000.20,-000.09,0000.48,18.6,25.1,06.0,04.0,0667.2,31.1
2021-07-22T04:12:00Z,00000200,00000000,0000.47,0000.78,0000.75,0000.22,0000.27,0000.29,-000.15,0000.17,-000.23,18.6,25.1,06.0,04.1,0667.3,31.1
2021-07-22T04:13:00Z,00000200,00000000,0001.30,0001.17,0000.40,0000.15,0000.18,0000.08,0000.01,0000.08,0000.18,18.6,25.1,06.1,04.1,0667.3,31.1
2021-07-22T04:14:00Z,00000200,00000000,0000.53,0000.61,0000.38,-000.09,0000.15,0000.32,0000.66,0000.23,0000.30,18.6,25.0,06.1,04.1,0667.3,31.1
2021-07-22T04:15:00Z,00000200,00000000,0000.94,0000.71,0000.59,0000.39,0000.30,-000.10,0000.29,0000.71,0000.38,18.7,25.1,06.0,04.1,0667.3,31.1
2021-07-22T04:16:00Z,00000200,00000000,0000.75,0000.40,0000.66,0000.00,-000.20,0000.23,0000.08,0000.08,0000.05,18.8,25.1,06.2,04.2,0667.4,31.1
2021-07-22T04:17:00Z,00000200,00000000,0001.42,0000.71,0000.39,0000.08,-000.02,0000.28,-000.10,-000.08,0000.36,18.8,25.1,06.2,04.2,0667.4,31.1
2021-07-22T04:18:00Z,00000200,00000000,0002.31,0000.79,0000.58,0000.11,0000.22,0000.11,0000.50,0000.24,-000.02,18.8,25.1,06.1,04.1,0667.4,31.1
2021-07-22T04:19:00Z,00000200,00000000,0000.89,0000.81,0000.62,0000.52,-000.03,0000.20,-000.17,-000.11,0000.06,18.8,25.2,06.1,04.2,0667.4,31.1
2021-07-22T04:20:00Z,00000200,00000000,0001.01,0000.80,0000.37,-000.21,0000.24,-000.33,-000.11,0000.44,-000.27,18.8,25.2,06.2,04.2,0667.4,31.1
2021-07-22T04:21:00Z,00000200,00000000,0000.74,0000.67,0000.70,0000.30,0000.31,0000.21,0000.65,-000.03,0000.45,18.8,25.1,06.2,04.2,0667.5,31.1
2021-07-22T04:22:00Z,00000200,00000000,0000.43,0000.64,0000.62,0000.28,0000.20,0000.11,0000.18,0000.12,-000.22,18.7,25.1,06.1,04.1,0667.5,31.1
2021-07-22T04:23:00Z,00000200,00000000,0001.21,0000.49,0000.34,-000.05,0000.34,0000.49,-000.20,-000.01,0000.35,18.7,25.1,06.2,04.2,0667.5,31.1
2021-07-22T04:24:00Z,00000200,00000000,0001.16,0001.01,0000.77,-000.20,0000.37,0000.02,-000.20,0000.17,0000.20,18.7,25.1,06.3,04.2,0667.5,31.1
2021-07-22T04:25:00Z,00000200,00000000,0000.67,0001.07,0000.33,-000.11,0000.08,0000.10,0000.37,-000.02,0000.05,18.7,25.1,06.2,04.2,0667.5,31.1
2021-07-22T04:26:00Z,00000200,00000000,0000.06,0000.86,0000.52,-000.68,-000.17,0000.37,0000.29,0000.05,-000.31,18.6,25.1,06.3,04.2,0667.5,31.1
2021-07-22T04:27:00Z,00000200,00000000,0001.08,0000.85,0000.38,-000.24,0000.05,0000.14,0000.12,0000.31,0000.41,18.6,25.0,06.3,04.3,0667.5,31.1
2021-07-22T04:28:00Z,00000200,00000000,0000.71,0000.95,0000.12,0000.12,0000.31,0000.05,0000.24,0000.12,0000.22,18.6,25.0,06.4,04.3,0667.6,31.0
2021-07-22T04:29:00Z,00000200,00000000,0001.39,0000.53,0000.66,-000.08,0000.02,0000.24,0000.18,0000.56,0000.43,18.6,25.0,06.3,04.3,0667.6,31.0
2021-07-22T04:30:00Z,00000200,00000000,0000.71,0000.60,0000.29,-000.39,0000.16,0000.01,0000.24,-000.05,0000.20,18.7,25.0,06.3,04.2,0667.6,31.1
2021-07-22T04:31:00Z,00000200,00000000,0001.30,0000.90,0000.40,-000.07,-000.03,0000.11,0000.14,0000.18,0000.15,18.8,25.1,06.3,04.3,0667.6,31.1
2021-07-22T04:32:00Z,00000200,00000000,0000.61,0000.82,0000.72,-000.47,0000.01,0000.56,-000.05,0000.21,0000.36,18.9,25.2,06.3,04.3,0667.6,31.1
2021-07-22T04:33:00Z,00000200,00000000,0001.38,0000.65,0000.33,0000.52,-000.02,-000.05,0000.27,-000.14,-000.65,18.9,25.2,06.3,04.3,0667.6,31.1
2021-07-22T04:34:00Z,00000200,00000000,0000.53,0000.58,0000.49,-000.06,0000.09,0000.49,0000.03,0000.11,0000.33,18.9,25.2,06.3,04.3,0667.6,31.1
2021-07-22T04:35:00Z,00000200,00000000,0000.57,0000.77,0000.33,-000.33,0000.48,0000.37,0000.03,-000.13,0000.15,18.9,25.1,06.3,04.3,0667.7,31.1
2021-07-22T04:36:00Z,00000200,00000000,0001.03,0000.78,0000.16,-000.11,0000.09,-000.01,0000.25,0000.53,0000.06,18.8,25.1,06.3,04.3,0667.7,31.1
2021-07-22T04:37:00Z,00000200,00000000,0001.25,0000.69,0000.14,0000.25,0000.12,-000.10,-000.08,-000.16,-000.04,18.8,25.1,06.3,04.3,0667.7,31.1
2021-07-22T04:38:00Z,00000200,00000000,0000.65,0000.39,0000.39,0000.08,-000.13,0000.23,0000.02,0000.07,0000.21,18.8,25.1,06.3,04.3,0667.7,31.1
2021-07-22T04:39:00Z,00000200,00000000,0000.42,0000.97,0000.62,0000.11,0000.25,0000.44,0000.34,0000.36,0000.17,18.8,25.1,06.3,04.3,0667.7,31.1
2021-07-22T04:40:00Z,00000200,00000000,0001.22,0000.75,0000.62,0000.14,0000.05,0000.23,-000.13,0000.19,0000.07,18.7,25.1,06.3,04.3,0667.7,31.0
2021-07-22T04:41:00Z,00000200,00000000,0000.63,0000.88,0000.29,0000.58,0000.01,-000.01,-000.03,-000.40,0000.11,18.7,25.1,06.4,04.3,0667.8,31.1
2021-07-22T04:42:00Z,00000200,00000000,0001.52,0000.44,0000.58,-000.03,-000.07,0000.19,0000.46,0000.39,0000.02,18.7,25.1,06.5,04.4,0667.8,31.1
2021-07-22T04:43:00Z,00000200,00000000,0000.31,0000.61,0000.45,0000.37,0000.22,0000.07,0000.14,0000.05,0000.33,18.6,25.0,06.4,04.3,0667.8,31.1
2021-07-22T04:44:00Z,00000200,00000000,0000.51,0000.74,0000.89,0000.56,0000.11,-000.00,0000.20,0000.51,0000.27,18.7,25.0,06.4,04.4,0667.9,31.0
2021-07-22T04:45:00Z,00000200,00000000,0000.82,0000.68,0000.66,0000.15,0000.01,0000.26,0000.16,0000.26,0000.05,18.7,25.0,06.5,04.4,0667.9,31.1
2021-07-22T04:46:00Z,00000200,00000000,0000.93,0000.65,0000.40,0000.07,0000.15,0000.35,0000.27,-000.19,0000.19,18.8,25.1,06.5,04.4,0667.9,31.1
2021-07-22T04:47:00Z,00000200,00000000,0001.41,0000.51,0000.79,-000.24,0000.11,0000.39,0000.20,0000.39,0000.21,18.8,25.1,06.5,04.4,0667.9,31.1
2021-07-22T04:48:00Z,00000200,00000000,0000.99,0000.75,0000.59,0000.01,-000.05,0000.22,0000.04,-000.18,-000.25,18.8,25.1,06.4,04.4,0667.9,31.1
2021-07-22T04:49:00Z,00000200,00000000,0000.43,0000.92,0000.48,-000.39,0000.46,-000.05,-000.20,0000.41,0000.31,18.8,25.1,06.5,04.4,0667.9,31.1
2021-07-22T04:50:00Z,00000200,00000000,0001.21,0000.64,0000.65,0000.03,0000.11,0000.21,0000.47,0000.00,-000.04,18.8,25.1,06.5,04.4,0668.0,31.1
2021-07-22T04:51:00Z,00000200,00000000,0000.78,0000.94,0000.19,0000.38,0000.18,-000.01,-000.12,-000.14,0000.34,18.8,25.1,06.5,04.4,0668.0,31.1
2021-07-22T04:52:00Z,00000200,00000000,0001.32,0000.88,0000.69,0000.45,-000.00,0000.29,-000.23,-000.13,-000.22,18.7,25.1,06.5,04.4,0668.0,31.1
2021-07-22T04:53:00Z,00000200,00000000,0001.18,0000.83,0000.56,0000.48,0000.17,-000.05,0000.48,0000.52,0000.47,18.7,25.1,06.5,04.4,0668.0,31.1
2021-07-22T04:54:00Z,00000200,00000000,0000.99,0000.80,0000.79,0000.37,0000.28,0000.41,0000.26,0000.26,-000.08,18.7,25.0,06.7,04.5,0668.0,31.1
2021-07-22T04:55:00Z,00000200,00000000,0000.44,0000.57,0000.62,0000.36,0000.24,0000.37,0000.31,0000.34,0000.23,18.7,25.0,06.7,04.6,0668.0,31.0
2021-07-22T04:56:00Z,00000200,00000000,0001.58,0000.88,0000.14,0000.34,-000.06,-000.25,-000.25,-000.21,-000.03,18.6,25.0,06.6,04.5,0668.0,31.0
2021-07-22T04:57:00Z,00000200,40000000,,,,,,,-000.05,0000.15,0000.00,18.6,25.0,06.8,04.6,0668.0,31.1
2021-07-22T04:58:00Z,00000200,60000000,,,,,,,0000.09,-000.16,-000.00,18.4,25.1,06.5,04.3,0667.1,31.1
2021-07-22T04:59:00Z,00000200,20000000,,,,,,,0000.31,0000.34,0000.24,18.4,25.2,06.5,04.3,0667.1,31.1
